CDT,Max TemperatureF,Mean TemperatureF,Min TemperatureF,Max Dew PointF,MeanDew PointF,Min DewpointF,Max Humidity, Mean Humidity, Min Humidity, Max Sea Level PressureIn, Mean Sea Level PressureIn, Min Sea Level PressureIn, Max VisibilityMiles, Mean VisibilityMiles, Min VisibilityMiles, Max Wind SpeedMPH, Mean Wind SpeedMPH, Max Gust SpeedMPH,PrecipitationIn, CloudCover, Events, WindDirDegrees
2014-3-1,6,0,-9,-6,-15,-22,66,55,46,30.49,30.37,30.16,10,10,10,14,8,20,0.00,0,,317
2014-3-2,3,-6,-14,-9,-18,-26,65,56,46,30.52,30.48,30.44,10,10,10,12,6,18,0.00,0,,277
2014-3-3,10,-5,-20,1,-12,-27,77,63,52,30.50,30.38,30.21,10,9,2,8,1,,0.00,4,Snow,155
2014-3-4,17,12,6,5,2,0,73,66,58,30.29,30.20,30.15,10,9,4,7,1,,0.00,5,Snow,45
2014-3-5,24,14,5,10,4,-4,67,61,54,30.45,30.36,30.30,10,10,10,12,4,16,0.00,0,,98
2014-3-6,28,20,12,19,13,3,74,68,62,30.30,30.02,29.77,10,9,7,22,10,29,0.00,2,,157
2014-3-7,33,28,23,27,20,12,80,71,59,30.18,29.91,29.73,10,6,1,15,6,21,0.00,5,Snow,313
2014-3-8,28,18,8,12,10,1,79,64,51,30.31,30.23,30.11,10,10,10,8,3,,0.01,1,,264
2014-3-9,44,30,17,30,23,9,75,65,56,30.11,29.76,29.61,10,10,10,15,8,20,0.01,0,,190
2014-3-10,51,42,33,36,32,27,81,63,54,29.67,29.61,29.55,10,10,7,13,4,20,0.00,0,,254
2014-3-11,42,36,30,30,26,18,70,58,49,30.01,29.84,29.67,10,10,10,17,5,25,0.00,1,,325
2014-3-12,30,24,17,18,10,7,68,59,50,30.12,30.06,29.98,10,10,5,14,8,22,0.00,3,Snow,328
2014-3-13,48,32,17,36,24,7,74,65,57,29.97,29.71,29.47,10,10,10,10,6,17,0.00,1,,174
2014-3-14,44,35,26,34,26,16,70,64,56,29.94,29.63,29.46,10,10,10,22,9,32,0.00,2,,278
2014-3-15,30,24,17,16,11,5,73,58,46,30.41,30.17,29.94,10,10,10,9,5,16,0.00,0,,7
2014-3-16,24,14,3,12,5,-4,78,59,46,30.48,30.32,29.97,10,10,10,12,3,16,0.00,1,,142
2014-3-17,35,30,24,25,18,12,74,66,59,29.94,29.67,29.56,10,10,5,17,10,22,0.00,7,Snow,134
2014-3-18,33,30,28,25,22,19,80,72,64,29.82,29.73,29.64,10,5,0,12,6,17,0.02,7,Snow,31
2014-3-19,37,30,23,25,21,16,74,66,56,29.95,29.86,29.79,10,9,2,16,7,26,0.10,7,Snow,308
2014-3-20,44,32,19,28,23,12,80,68,53,29.98,29.94,29.87,10,9,2,7,1,,0.20,3,Snow,183
2014-3-21,42,30,19,32,25,10,75,69,61,30.15,29.83,29.68,10,9,0,23,8,31,0.01,7,Rain-Snow,214
2014-3-22,19,12,6,9,2,-4,68,60,53,30.47,30.36,30.16,10,10,10,15,9,23,0.00,0,,301
2014-3-23,23,12,0,9,2,-8,73,65,54,30.49,30.42,30.32,10,10,2,13,3,20,0.00,2,Snow,281
2014-3-24,30,16,3,18,8,-2,80,64,47,30.33,30.18,30.07,10,9,1,20,3,30,0.00,4,Snow,273
2014-3-25,21,14,6,9,2,-4,73,58,49,30.26,30.18,30.11,10,10,10,16,9,22,0.00,1,,294
2014-3-26,39,22,6,27,14,-2,73,61,48,30.12,29.88,29.55,10,10,10,16,5,26,0.00,2,,132
2014-3-27,42,36,30,34,30,25,81,76,57,29.74,29.53,29.46,10,4,1,12,8,20,0.16,8,Rain-Snow,84
2014-3-28,35,29,23,25,17,12,80,59,38,30.24,30.04,29.75,10,10,10,10,6,17,0.04,2,,330
2014-3-29,42,28,14,25,17,7,79,59,42,30.26,30.18,30.03,10,10,10,12,2,9,0.00,1,,150
2014-3-30,55,45,35,37,33,25,70,61,51,30.02,29.85,29.78,10,10,7,16,8,25,0.00,0,,141
2014-3-31,48,44,39,37,34,30,76,67,62,29.77,29.55,29.33,10,9,7,15,5,18,0.01,4,Rain-Thunderstorm,77